Previsão horária em Aalsmeer

Hoje, 18 Abril, Domingo

Tempo Temperatura Precipitação Vento Pressão Humidade
00:00 +4°C° 0 mm 2 m/s 768 mmHg 85%
01:00 +4°C° 0 mm 2 m/s 768 mmHg 87%
02:00 +4°C° 0 mm 2 m/s 767 mmHg 88%
03:00 +4°C° 0 mm 2 m/s 767 mmHg 89%
04:00 +4°C° 0 mm 2 m/s 767 mmHg 87%
05:00 +5°C° 0 mm 2 m/s 767 mmHg 85%
06:00 +6°C° 0 mm 1 m/s 767 mmHg 83%
07:00 +8°C° 0 mm 1 m/s 767 mmHg 74%
08:00 +10°C° 0 mm 1 m/s 767 mmHg 64%
09:00 +12°C° 0 mm 1 m/s 767 mmHg 55%
10:00 +13°C° 0 mm 2 m/s 767 mmHg 53%
11:00 +14°C° 0 mm 2 m/s 767 mmHg 51%
12:00 +15°C° 0 mm 2 m/s 767 mmHg 49%
13:00 +14°C° 0 mm 3 m/s 767 mmHg 51%
14:00 +14°C° 0 mm 3 m/s 766 mmHg 52%
15:00 +14°C° 0 mm 4 m/s 766 mmHg 53%
16:00 +13°C° 0 mm 4 m/s 766 mmHg 59%
17:00 +12°C° 0 mm 4 m/s 766 mmHg 65%
18:00 +10°C° 0 mm 4 m/s 766 mmHg 70%
19:00 +9°C° 0 mm 3 m/s 767 mmHg 74%
20:00 +8°C° 0 mm 3 m/s 767 mmHg 78%
21:00 +7°C° 0 mm 3 m/s 767 mmHg 81%
22:00 +7°C° 0 mm 3 m/s 767 mmHg 83%
23:00 +5°C° 0 mm 3 m/s 767 mmHg 84%

Amanhã, 19 Abril, Segunda-feira

Tempo Temperatura Precipitação Vento Pressão Humidade
00:00 +6°C° 0 mm 2 m/s 766 mmHg 86%
01:00 +5°C° 0 mm 2 m/s 766 mmHg 87%
02:00 +5°C° 0 mm 2 m/s 766 mmHg 89%
03:00 +5°C° 0 mm 2 m/s 766 mmHg 90%
04:00 +6°C° 0 mm 2 m/s 766 mmHg 89%
05:00 +6°C° 0 mm 2 m/s 766 mmHg 88%
06:00 +7°C° 0 mm 2 m/s 766 mmHg 86%
07:00 +8°C° 0 mm 2 m/s 765 mmHg 81%
08:00 +10°C° 0 mm 2 m/s 765 mmHg 75%
09:00 +13°C° 0 mm 2 m/s 765 mmHg 69%
10:00 +13°C° 0.3 mm 2 m/s 765 mmHg 68%
11:00 +14°C° 0.3 mm 2 m/s 765 mmHg 66%
12:00 +13°C° 0.3 mm 3 m/s 765 mmHg 64%
13:00 +14°C° 0.4 mm 2 m/s 765 mmHg 65%
14:00 +14°C° 0.4 mm 2 m/s 764 mmHg 65%
15:00 +15°C° 0.4 mm 2 m/s 764 mmHg 66%
16:00 +14°C° 0.3 mm 2 m/s 764 mmHg 71%
17:00 +13°C° 0.3 mm 2 m/s 764 mmHg 75%
18:00 +12°C° 0.3 mm 2 m/s 764 mmHg 80%
19:00 +10°C° 0 mm 2 m/s 764 mmHg 82%
20:00 +9°C° 0 mm 2 m/s 764 mmHg 84%
21:00 +8°C° 0 mm 2 m/s 764 mmHg 87%
22:00 +8°C° 0 mm 2 m/s 764 mmHg 88%
23:00 +7°C° 0 mm 2 m/s 764 mmHg 89%

Depois de amanhã, 20 Abril, Terça-feira

Tempo Temperatura Precipitação Vento Pressão Humidade
00:00 +7°C° 0 mm 2 m/s 764 mmHg 90%
01:00 +7°C° 0 mm 2 m/s 764 mmHg 90%
02:00 +7°C° 0 mm 1 m/s 764 mmHg 91%
03:00 +7°C° 0 mm 1 m/s 764 mmHg 91%
04:00 +8°C° 0 mm 1 m/s 764 mmHg 90%
05:00 +8°C° 0 mm 1 m/s 764 mmHg 89%
06:00 +8°C° 0 mm 1 m/s 764 mmHg 87%
07:00 +10°C° 0 mm 1 m/s 764 mmHg 80%
08:00 +12°C° 0 mm 1 m/s 764 mmHg 72%
09:00 +13°C° 0 mm 0 m/s 764 mmHg 65%
10:00 +15°C° 0 mm 1 m/s 764 mmHg 60%
11:00 +16°C° 0 mm 1 m/s 763 mmHg 55%
12:00 +18°C° 0 mm 1 m/s 763 mmHg 50%
13:00 +17°C° 0 mm 2 m/s 763 mmHg 52%
14:00 +16°C° 0 mm 3 m/s 763 mmHg 54%
15:00 +16°C° 0 mm 3 m/s 763 mmHg 56%
16:00 +14°C° 0 mm 3 m/s 763 mmHg 61%
17:00 +13°C° 0 mm 3 m/s 763 mmHg 67%
18:00 +12°C° 0 mm 3 m/s 763 mmHg 72%
19:00 +11°C° 0 mm 3 m/s 763 mmHg 72%
20:00 +11°C° 0 mm 3 m/s 763 mmHg 73%
21:00 +10°C° 0 mm 3 m/s 764 mmHg 74%
22:00 +10°C° 0 mm 2 m/s 763 mmHg 74%
23:00 +9°C° 0 mm 2 m/s 763 mmHg 75%

21 Abril, Quarta-feira

Tempo Temperatura Precipitação Vento Pressão Humidade
00:00 +9°C° 0 mm 2 m/s 763 mmHg 76%
01:00 +9°C° 0 mm 2 m/s 763 mmHg 77%
02:00 +9°C° 0 mm 3 m/s 763 mmHg 79%
03:00 +8°C° 0 mm 3 m/s 763 mmHg 81%
04:00 +8°C° 0 mm 3 m/s 764 mmHg 81%
05:00 +8°C° 0 mm 4 m/s 764 mmHg 81%
06:00 +8°C° 0 mm 4 m/s 764 mmHg 81%
07:00 +9°C° 0 mm 5 m/s 764 mmHg 75%
08:00 +9°C° 0 mm 5 m/s 765 mmHg 70%
09:00 +10°C° 0 mm 6 m/s 765 mmHg 65%
10:00 +10°C° 0 mm 6 m/s 765 mmHg 60%
11:00 +10°C° 0 mm 6 m/s 766 mmHg 54%
12:00 +10°C° 0 mm 6 m/s 766 mmHg 49%
13:00 +10°C° 0 mm 6 m/s 766 mmHg 49%
14:00 +10°C° 0 mm 6 m/s 766 mmHg 48%
15:00 +9°C° 0 mm 6 m/s 766 mmHg 48%
16:00 +8°C° 0 mm 6 m/s 766 mmHg 52%
17:00 +7°C° 0 mm 6 m/s 766 mmHg 56%
18:00 +6°C° 0 mm 5 m/s 767 mmHg 60%
19:00 +5°C° 0 mm 5 m/s 767 mmHg 64%
20:00 +4°C° 0 mm 4 m/s 767 mmHg 67%
21:00 +3°C° 0 mm 3 m/s 768 mmHg 71%
22:00 +3°C° 0 mm 3 m/s 768 mmHg 72%
23:00 +2°C° 0 mm 3 m/s 768 mmHg 73%

22 Abril, Quinta-feira

Tempo Temperatura Precipitação Vento Pressão Humidade
00:00 +3°C° 0 mm 2 m/s 768 mmHg 75%
01:00 +3°C° 0 mm 2 m/s 768 mmHg 75%
02:00 +2°C° 0 mm 2 m/s 768 mmHg 76%
03:00 +2°C° 0 mm 2 m/s 768 mmHg 77%
04:00 +3°C° 0 mm 2 m/s 768 mmHg 75%
05:00 +3°C° 0 mm 3 m/s 768 mmHg 74%
06:00 +4°C° 0 mm 3 m/s 769 mmHg 73%
07:00 +5°C° 0 mm 3 m/s 769 mmHg 67%
08:00 +7°C° 0 mm 3 m/s 769 mmHg 61%
09:00 +8°C° 0 mm 4 m/s 769 mmHg 56%
10:00 +8°C° 0 mm 4 m/s 769 mmHg 54%
11:00 +10°C° 0 mm 4 m/s 769 mmHg 52%
12:00 +11°C° 0 mm 4 m/s 769 mmHg 50%
13:00 +11°C° 0 mm 4 m/s 769 mmHg 51%
14:00 +11°C° 0 mm 4 m/s 769 mmHg 51%
15:00 +11°C° 0 mm 4 m/s 769 mmHg 52%
16:00 +10°C° 0 mm 4 m/s 769 mmHg 56%
17:00 +8°C° 0 mm 4 m/s 770 mmHg 61%
18:00 +8°C° 0 mm 3 m/s 770 mmHg 66%
19:00 +5°C° 0 mm 3 m/s 770 mmHg 72%
20:00 +5°C° 0 mm 2 m/s 770 mmHg 78%
21:00 +4°C° 0 mm 2 m/s 770 mmHg 84%
22:00 +5°C° 0 mm 1 m/s 770 mmHg 85%
23:00 +4°C° 0 mm 1 m/s 770 mmHg 86%

23 Abril, Sexta-feira

Tempo Temperatura Precipitação Vento Pressão Humidade
00:00 +4°C° 0 mm 1 m/s 770 mmHg 87%
01:00 +4°C° 0 mm 1 m/s 770 mmHg 87%
02:00 +3°C° 0 mm 1 m/s 770 mmHg 87%
03:00 +3°C° 0 mm 1 m/s 770 mmHg 87%
04:00 +4°C° 0 mm 1 m/s 770 mmHg 84%
05:00 +5°C° 0 mm 1 m/s 770 mmHg 81%
06:00 +5°C° 0 mm 1 m/s 770 mmHg 79%
07:00 +7°C° 0 mm 1 m/s 770 mmHg 70%
08:00 +9°C° 0 mm 1 m/s 770 mmHg 62%
09:00 +11°C° 0 mm 1 m/s 770 mmHg 54%
10:00 +12°C° 0 mm 1 m/s 769 mmHg 51%
11:00 +13°C° 0 mm 2 m/s 769 mmHg 47%
12:00 +14°C° 0 mm 2 m/s 769 mmHg 44%
13:00 +13°C° 0 mm 3 m/s 768 mmHg 44%
14:00 +13°C° 0 mm 3 m/s 768 mmHg 44%
15:00 +13°C° 0 mm 4 m/s 768 mmHg 44%
16:00 +12°C° 0 mm 4 m/s 767 mmHg 50%
17:00 +11°C° 0 mm 4 m/s 767 mmHg 55%
18:00 +8°C° 0 mm 4 m/s 767 mmHg 61%
19:00 +7°C° 0 mm 4 m/s 767 mmHg 67%
20:00 +6°C° 0 mm 4 m/s 767 mmHg 72%
21:00 +5°C° 0 mm 3 m/s 768 mmHg 78%
22:00 +4°C° 0 mm 3 m/s 767 mmHg 78%
23:00 +4°C° 0 mm 3 m/s 767 mmHg 77%
Mostrar mais